sat.trackr.live / text

‹ back to catalog

STARLINK-30442

NORAD 57868 · 2023-144E

PAYLOAD ACTIVE UNKNOWN

§ Identity

Operator
Country
US
Launch date
2023-09-16
Launch site
AFETR
Launch vehicle
Mass (kg)
RCS (m²)

Purposes: comms

External: N2YO · Heavens-Above · Gunter

§ Orbital elements

Epoch: 2026-09-20T10:49:48.462240Z

Period
94.27 min
Inclination
43.0021°
Eccentricity
0.0000983
Mean motion
15.27575164 rev/d
Perigee alt
482.4 km
Apogee alt
483.7 km
Semi-major
6,861.2 km
B*
1.9118e-5
RAAN
265.2554°
Arg perigee
279.2617°
Mean anomaly
80.8123°
Rev number
16,738

§ Raw data

STARLINK-304421 57868U 23144E   26263.45125535  .00000264  00000+0  19118-4 0  99922 57868  43.0021 265.2554 0000983 279.2617  80.8123 15.27575164167389

JSON: /api/v1/satellites/57868 · /tle

For live sub-satellite position, see the globe view (requires WebGL).

§ Visibility from observer

Set your observer location to see the next 7 days of passes ≥ 10°. The values pass through the URL so the page stays shareable.

No JS? Fill the form by hand. The geolocation button needs JavaScript.